星链-37372(STARLINK-37372)

导读

STARLINK-37372(NORAD编号69135)是美国SpaceX公司星链(Starlink)星座中的一颗低轨互联网卫星,星链星座旨在构建覆盖全球的天基高速互联网通信系统。作为星链大规模组网计划的组成部分,该卫星运行在近地轨道,为全球用户提供低时延宽带互联网接入服务,支撑消费互联网、远程通信等多场景应用。目前该卫星已正常入轨运行,是星链已部署数千颗卫星中的一员,助力SpaceX逐步实现覆盖全球的低轨星座布局。

基本信息
目录编号:
69135
目录名称:
STARLINK-37372
国际标识:
2026-110M
轨道中心:
EARTH
卫星名称:
星链-37372
卫星全名:
星链-37372(STARLINK-37372)
卫星状态:
在轨 (已飞行116 天)
发射日期:
2026-05-20 UTC
国别 :
美国 (US)
星等 :
--
该卫星已列入 空间交会检测服务 Space Conjunction Data Service (SCDS) ,当前飞行风险评估等级: 无高风险
轨道信息
数据来源 国际轨道数据 AOE轨道数据
星历时间 2026-09-13T09:05:14+0800
10小时前
查看轨道信息
2026-09-10T03:00:00+0800
3天前
查看轨道信息
半长轴 6843.669km 6843.76km
偏心率 0.0001226 0.0001656
轨道倾角 97.286° 97.286°
近地点辐角 76.107° 94.127°
升交点赤经 91.209° 88.000°
平近点角 284.031° 316.349°
近地点 464.692km 464.489km
远地点 466.372km 466.757km
周期 93.906分钟 93.908分钟
每日圈数 15.33449 15.334184
详细信息
固有亮度:
5
最大亮度:
2.5
卫星平台:
Starlink V1.0
覆盖范围:
全球
运营商:
太空探索技术公司
运营商所在国:
美国
制造商(研发单位):
太空探索技术公司
制造商所在国:
美国
使用方式:
暂无
卫星简介
Starlink 计划是 SpaceX 推出的全球卫星互联网项目,通过发射低轨道卫星,为全球尤其是偏远地区提供高速、低延迟的互联网服务。自 2019 年起,Starlink 已部署数千颗卫星,旨在缩小全球数字鸿沟,推动互联网普及。该项目还为军事、航空等行业提供通信支持,带来广泛经济效益。
2D轨道图
3D轨道图
轨道高度分析图
轨道倾角分析图
轨道综合分析图
查看轨道综合分析图
交会数据列表
事件ID 空间交会对象 最接近时刻(TCA) 交会距离 交会风险概率(CRP) 交会风险指数(CRI) 操作
CDM_260911-174304-763006-913521
2026-09-11T
17:43:12+0000
1.697 km
极远距离
4.523504E-6 低风险 0.48
CDM_260913-212506-077606-913523
2026-09-13T
21:25:05+0000
1.784 km
极远距离
3.990728E-6 低风险 0.47
CDM_260914-001406-123006-913521
OBJECT D (61230)
2026-09-14T
00:14:16+0000
1.868 km
极远距离
3.137094E-6 低风险 0.45
CDM_260911-122304-649506-913525
SALSAT (46495)
2026-09-11T
12:23:11+0000
2.033 km
极远距离
2.778389E-6 低风险 0.44
CDM_260915-144806-026306-913521
2026-09-15T
14:48:00+0000
2.835 km
极远距离
1.421345E-6 低风险 0.38
CDM_260911-032705-405306-913521
2026-09-11T
03:27:14+0000
2.826 km
极远距离
1.372886E-6 低风险 0.38
CDM_260914-153905-317406-913521
2026-09-14T
15:39:45+0000
2.660 km
极远距离
1.185345E-6 低风险 0.36
CDM_260913-204706-370206-913522
2026-09-13T
20:47:13+0000
2.598 km
极远距离
1.028909E-6 低风险 0.35
与全量物体交会距离演化趋势
与全量物体交会风险概率演化趋势